| time (UTC) | temp F | wind direction | speed MPH | gust MPH | rain 1hr in | rain 24hr in | rain mn in | humidity % | barometer mb |
| 20260901071559 | 71 | 166 | 1.0 | 4.0 | 0.00 | 0.00 | 0.00 | 82 | 1020.9 |
| 20260901070118 | 70 | 136 | 0.0 | 2.0 | 0.00 | 0.00 | 0.00 | 86 | 1020.6 |
| 20260901064644 | 68 | 314 | 0.0 | 2.0 | 0.00 | 0.00 | 0.00 | 90 | 1020.2 |
| 20260901063152 | 67 | 314 | 0.0 | 2.0 | 0.00 | 0.00 | 0.00 | 92 | 1020.5 |
| 20260901061540 | 65 | 314 | 0.0 | 2.0 | 0.00 | 0.00 | 0.00 | 92 | 1020.7 |
| 20260901060031 | 64 | 314 | 0.0 | 2.0 | 0.00 | 0.00 | 0.00 | 92 | 1020.6 |
| 20260901054549 | 64 | 314 | 0.0 | 2.0 | 0.00 | 0.00 | 0.00 | 92 | 1020.4 |
| 20260901053116 | 64 | 314 | 1.0 | 2.0 | 0.00 | 0.00 | 0.00 | 91 | 1020.3 |
| 20260901051610 | 64 | 273 | 0.0 | 2.0 | 0.00 | 0.00 | 0.00 | 92 | 1020.2 |
| 20260901050015 | 64 | 257 | 1.0 | 2.0 | 0.00 | 0.00 | 0.00 | 92 | 1020.3 |
| 20260901044523 | 64 | 283 | 0.0 | 2.0 | 0.00 | 0.00 | 0.00 | 92 | 1020.2 |
| 20260901043035 | 64 | 266 | 2.0 | 4.0 | 0.00 | 0.00 | 0.00 | 92 | 1020.1 |
| 20260901041544 | 65 | 275 | 0.0 | 3.0 | 0.00 | 0.00 | 0.00 | 91 | 1020.4 |
| 20260901040056 | 65 | 266 | 0.0 | 2.0 | 0.00 | 0.00 | 0.00 | 91 | 1020.4 |
| 20260901034613 | 65 | 266 | 0.0 | 2.0 | 0.00 | 0.00 | 0.00 | 91 | 1020.4 |
| 20260901033200 | 65 | 266 | 1.0 | 2.0 | 0.00 | 0.00 | 0.00 | 91 | 1020.3 |
| 20260901031700 | 66 | 266 | 0.0 | 2.0 | 0.00 | 0.00 | 0.00 | 91 | 1020.5 |
| 20260901030017 | 66 | 266 | 0.0 | 2.0 | 0.00 | 0.00 | 0.00 | 90 | 1020.6 |
| 20260901024519 | 67 | 266 | 0.0 | 0.0 | 0.00 | 0.00 | 0.00 | 90 | 1020.7 |
| 20260901023101 | 67 | 266 | 0.0 | 2.0 | 0.00 | 0.00 | 0.00 | 90 | 1020.8 |
| 20260901021639 | 68 | 266 | 2.0 | 4.0 | 0.00 | 0.00 | 0.00 | 91 | 1021.0 |
| 20260901020115 | 68 | 241 | 1.0 | 4.0 | 0.00 | 0.00 | 0.00 | 91 | 1021.1 |
| 20260901014631 | 68 | 258 | 3.0 | 4.0 | 0.00 | 0.00 | 0.00 | 91 | 1021.0 |
| 20260901013114 | 68 | 266 | 2.0 | 4.0 | 0.00 | 0.00 | 0.00 | 92 | 1021.2 |
| 20260901011631 | 68 | 263 | 0.0 | 2.0 | 0.00 | 0.00 | 0.00 | 91 | 1021.2 |
| 20260901010035 | 68 | 263 | 1.0 | 3.0 | 0.00 | 0.00 | 0.00 | 92 | 1021.3 |
| 20260901004602 | 68 | 263 | 3.0 | 4.0 | 0.00 | 0.00 | 0.00 | 92 | 1021.4 |
| 20260901003125 | 68 | 265 | 2.0 | 3.0 | 0.00 | 0.00 | 0.00 | 91 | 1021.5 |
| 20260901001622 | 68 | 278 | 1.0 | 3.0 | 0.00 | 0.00 | 0.00 | 91 | 1021.6 |
| 20260901000130 | 68 | 268 | 1.0 | 3.0 | 0.00 | 0.00 | 0.00 | 90 | 1021.5 |
| 20260831234558 | 69 | 268 | 0.0 | 1.0 | 0.00 | 0.00 | 0.00 | 90 | 1021.7 |
| 20260831233034 | 69 | 268 | 0.0 | 2.0 | 0.00 | 0.00 | 0.00 | 90 | 1021.7 |
| 20260831231529 | 69 | 268 | 0.0 | 2.0 | 0.00 | 0.00 | 0.00 | 90 | 1021.7 |
| 20260831230013 | 69 | 268 | 1.0 | 2.0 | 0.00 | 0.00 | 0.00 | 90 | 1021.6 |
| 20260831224534 | 69 | 268 | 0.0 | 2.0 | 0.00 | 0.00 | 0.00 | 89 | 1021.5 |
| 20260831223004 | 69 | 268 | 0.0 | 2.0 | 0.00 | 0.00 | 0.00 | 90 | 1021.4 |
| 20260831221541 | 69 | 268 | 1.0 | 2.0 | 0.00 | 0.00 | 0.00 | 89 | 1021.3 |
| 20260831220006 | 70 | 268 | 0.0 | 2.0 | 0.00 | 0.00 | 0.00 | 89 | 1021.3 |
| 20260831214546 | 69 | 268 | 0.0 | 2.0 | 0.00 | 0.00 | 0.00 | 89 | 1021.0 |
| 20260831213055 | 69 | 268 | 2.0 | 3.0 | 0.00 | 0.00 | 0.00 | 89 | 1021.1 |
| 20260831211620 | 69 | 268 | 2.0 | 3.0 | 0.00 | 0.00 | 0.00 | 89 | 1020.9 |
| 20260831210136 | 69 | 268 | 1.0 | 3.0 | 0.00 | 0.00 | 0.00 | 89 | 1020.8 |
| 20260831204656 | 70 | 264 | 3.0 | 4.0 | 0.00 | 0.00 | 0.00 | 88 | 1020.6 |
| 20260831201509 | 72 | 298 | 0.0 | 2.0 | 0.00 | 0.00 | 0.00 | 88 | 1020.3 |
| 20260831200156 | 72 | 46 | 0.0 | 3.0 | 0.00 | 0.00 | 0.00 | 88 | 1020.2 |
| 20260831194543 | 72 | 17 | 3.0 | 5.0 | 0.00 | 0.00 | 0.00 | 88 | 1020.1 |
| 20260831191502 | 73 | 17 | 3.0 | 5.0 | 0.00 | 0.00 | 0.00 | 86 | 1019.9 |
| 20260831190017 | 73 | 29 | 0.0 | 3.0 | 0.00 | 0.00 | 0.00 | 84 | 1019.6 |
| 20260831184519 | 74 | 47 | 2.0 | 6.0 | 0.00 | 0.00 | 0.00 | 84 | 1019.4 |
| 20260831183015 | 74 | 46 | 3.0 | 6.0 | 0.00 | 0.00 | 0.00 | 82 | 1019.3 |
| 20260831181542 | 75 | 42 | 5.0 | 9.0 | 0.00 | 0.00 | 0.00 | 80 | 1019.3 |
| 20260831180059 | 76 | 45 | 4.0 | 9.0 | 0.00 | 0.00 | 0.00 | 79 | 1019.2 |
| 20260831174616 | 76 | 27 | 5.0 | 10.0 | 0.00 | 0.00 | 0.00 | 78 | 1019.3 |
| 20260831173103 | 77 | 82 | 4.0 | 9.0 | 0.00 | 0.00 | 0.00 | 77 | 1019.4 |
| 20260831171613 | 77 | 78 | 7.0 | 10.0 | 0.00 | 0.00 | 0.00 | 75 | 1019.4 |
| 20260831170015 | 77 | 56 | 6.0 | 11.0 | 0.00 | 0.00 | 0.00 | 74 | 1019.3 |
| 20260831164532 | 78 | 77 | 6.0 | 12.0 | 0.00 | 0.00 | 0.00 | 71 | 1019.4 |
| 20260831163030 | 79 | 87 | 6.0 | 11.0 | 0.00 | 0.00 | 0.00 | 70 | 1019.3 |
| 20260831161538 | 78 | 67 | 5.0 | 12.0 | 0.00 | 0.00 | 0.00 | 72 | 1019.5 |
| 20260831160030 | 78 | 55 | 8.0 | 15.0 | 0.00 | 0.00 | 0.00 | 72 | 1019.5 |
| 20260831154527 | 79 | 111 | 7.0 | 13.0 | 0.00 | 0.00 | 0.00 | 70 | 1019.6 |
| 20260831153057 | 80 | 73 | 9.0 | 13.0 | 0.00 | 0.00 | 0.00 | 68 | 1019.7 |
| 20260831151643 | 80 | 83 | 5.0 | 13.0 | 0.00 | 0.00 | 0.00 | 64 | 1019.6 |
| 20260831150145 | 80 | 111 | 4.0 | 10.0 | 0.00 | 0.00 | 0.00 | 65 | 1019.6 |
| 20260831144529 | 79 | 133 | 4.0 | 10.0 | 0.00 | 0.00 | 0.00 | 67 | 1019.6 |
| 20260831143035 | 80 | 102 | 5.0 | 12.0 | 0.00 | 0.00 | 0.00 | 66 | 1019.8 |
| 20260831141508 | 80 | 161 | 5.0 | 11.0 | 0.00 | 0.00 | 0.00 | 67 | 1019.9 |
| 20260831134510 | 80 | 79 | 11.0 | 17.0 | 0.00 | 0.00 | 0.00 | 66 | 1020.1 |
| 20260831133014 | 80 | 67 | 8.0 | 14.0 | 0.00 | 0.00 | 0.00 | 66 | 1020.1 |
| 20260831131534 | 81 | 61 | 3.0 | 17.0 | 0.00 | 0.00 | 0.00 | 65 | 1020.1 |
| 20260831130045 | 80 | 111 | 7.0 | 16.0 | 0.00 | 0.00 | 0.00 | 66 | 1020.1 |
| 20260831124546 | 80 | 102 | 7.0 | 11.0 | 0.00 | 0.00 | 0.00 | 67 | 1020.3 |
| 20260831123049 | 79 | 54 | 9.0 | 13.0 | 0.00 | 0.00 | 0.00 | 68 | 1020.4 |
| 20260831121557 | 81 | 19 | 7.0 | 17.0 | 0.00 | 0.00 | 0.00 | 64 | 1020.4 |
| 20260831120039 | 82 | 77 | 6.0 | 11.0 | 0.00 | 0.00 | 0.00 | 63 | 1020.4 |
| 20260831114553 | 82 | 44 | 5.0 | 12.0 | 0.00 | 0.00 | 0.00 | 62 | 1020.5 |
| 20260831113053 | 82 | 129 | 9.0 | 15.0 | 0.00 | 0.00 | 0.00 | 60 | 1020.4 |
| 20260831111505 | 82 | 342 | 4.0 | 16.0 | 0.00 | 0.00 | 0.00 | 54 | 1020.3 |
| 20260831110023 | 81 | 61 | 6.0 | 14.0 | 0.00 | 0.00 | 0.00 | 53 | 1020.4 |
| 20260831104621 | 81 | 52 | 7.0 | 13.0 | 0.00 | 0.00 | 0.00 | 55 | 1020.5 |
| 20260831103136 | 81 | 57 | 2.0 | 15.0 | 0.00 | 0.00 | 0.00 | 55 | 1020.6 |
| 20260831101659 | 80 | 83 | 4.0 | 13.0 | 0.00 | 0.00 | 0.00 | 56 | 1020.5 |
| 20260831100007 | 80 | 347 | 6.0 | 12.0 | 0.00 | 0.00 | 0.00 | 56 | 1020.4 |
| 20260831094526 | 79 | 14 | 1.0 | 12.0 | 0.00 | 0.00 | 0.00 | 55 | 1020.4 |
| 20260831093017 | 79 | 11 | 4.0 | 11.0 | 0.00 | 0.00 | 0.00 | 56 | 1020.3 |
| 20260831091549 | 78 | 94 | 5.0 | 11.0 | 0.00 | 0.00 | 0.00 | 56 | 1020.2 |
| 20260831090028 | 78 | 115 | 4.0 | 13.0 | 0.00 | 0.00 | 0.00 | 56 | 1020.1 |
| 20260831084541 | 78 | 65 | 4.0 | 10.0 | 0.00 | 0.00 | 0.00 | 54 | 1020.0 |
| 20260831083135 | 78 | 23 | 2.0 | 7.0 | 0.00 | 0.00 | 0.00 | 53 | 1019.8 |
| 20260831081636 | 77 | 67 | 3.0 | 6.0 | 0.00 | 0.00 | 0.00 | 55 | 1019.9 |
| 20260831080129 | 76 | 85 | 3.0 | 7.0 | 0.00 | 0.00 | 0.00 | 58 | 1019.8 |
| 20260831074641 | 75 | 112 | 2.0 | 8.0 | 0.00 | 0.00 | 0.00 | 62 | 1019.8 |
| 20260831073211 | 75 | 109 | 1.0 | 3.0 | 0.00 | 0.00 | 0.00 | 62 | 1019.7 |